timestamp,surface_pressure_avg,surface_temp_avg,battery_voltage,lat,long
2018-11-01 00:00:00+00:00,234.1398,9.7,12.81,47.84626,-54.09684
2018-11-01 00:10:00+00:00,234.3714,9.7,12.73,47.84626,-54.09684
2018-11-01 00:20:00+00:00,233.243,9.7,12.81,47.84626,-54.09684
2018-11-01 00:30:00+00:00,230.1914,9.7,12.81,47.84626,-54.09684
2018-11-01 00:40:00+00:00,231.3031,9.7,12.81,47.84626,-54.09684
2018-11-01 00:50:00+00:00,235.5265,9.7,12.81,47.84626,-54.09684
2018-11-01 01:00:00+00:00,236.1631,9.7,12.81,47.84626,-54.09684
2018-11-01 01:10:00+00:00,233.1481,9.7,12.73,47.84626,-54.09684
2018-11-01 01:20:00+00:00,232.6765,9.7,12.81,47.84626,-54.09684
2018-11-01 01:30:00+00:00,239.5781,9.7,12.81,47.84626,-54.09684
2018-11-01 01:40:00+00:00,243.2414,9.5,12.81,47.84626,-54.09684
2018-11-01 01:50:00+00:00,246.6864,9.5,12.81,47.84626,-54.09684
2018-11-01 02:00:00+00:00,253.5447,9.56,12.81,47.84626,-54.09684
2018-11-01 02:10:00+00:00,265.5114,9.7,12.73,47.84626,-54.09684
2018-11-01 02:20:00+00:00,270.3747,9.7,12.81,47.84626,-54.09684
2018-11-01 02:30:00+00:00,272.0097,9.6,12.81,47.84626,-54.09684
2018-11-01 02:40:00+00:00,278.4614,9.41,12.81,47.84626,-54.09684
2018-11-01 02:50:00+00:00,286.5264,9.7,12.81,47.84626,-54.09684
2018-11-01 03:00:00+00:00,286.863,9.7,12.81,47.84626,-54.09684
2018-11-01 03:10:00+00:00,288.533,9.75,12.73,47.84626,-54.09684
2018-11-01 03:20:00+00:00,300.2081,9.78,12.81,47.84626,-54.09684
2018-11-01 03:30:00+00:00,309.093,9.79,12.81,47.84626,-54.09684
2018-11-01 03:40:00+00:00,307.263,9.8,12.81,47.84626,-54.09684
2018-11-01 03:50:00+00:00,309.7147,9.8,12.81,47.84626,-54.09684
2018-11-01 04:00:00+00:00,321.658,9.78,12.81,47.84626,-54.09684
2018-11-01 04:10:00+00:00,324.6263,9.79,12.73,47.84626,-54.09684
2018-11-01 04:20:00+00:00,320.7029,9.8,12.81,47.84626,-54.09684
2018-11-01 04:30:00+00:00,320.583,9.8,12.81,47.84626,-54.09684
2018-11-01 04:40:00+00:00,328.5513,9.8,12.81,47.84626,-54.09684
2018-11-01 04:50:00+00:00,330.6213,9.8,12.81,47.84626,-54.09684
2018-11-01 05:00:00+00:00,326.553,9.8,12.73,47.84626,-54.09684
2018-11-01 05:10:00+00:00,328.4996,9.8,12.73,47.84626,-54.09684
2018-11-01 05:20:00+00:00,332.9763,9.8,12.81,47.84626,-54.09684
2018-11-01 05:30:00+00:00,336.6413,9.8,12.81,47.84626,-54.09684
2018-11-01 05:40:00+00:00,339.3013,9.8,12.81,47.84626,-54.09684
2018-11-01 05:50:00+00:00,342.1497,9.82,12.81,47.84626,-54.09684
2018-11-01 06:00:00+00:00,342.0396,9.83,12.73,47.84626,-54.09684
2018-11-01 06:10:00+00:00,338.9246,9.84,12.73,47.84626,-54.09684
2018-11-01 06:20:00+00:00,336.938,9.84,12.81,47.84626,-54.09684
2018-11-01 06:30:00+00:00,335.0913,9.82,12.81,47.84626,-54.09684
2018-11-01 06:40:00+00:00,332.1713,9.81,12.81,47.84626,-54.09684
2018-11-01 06:50:00+00:00,326.003,9.8,12.81,47.84626,-54.09684
2018-11-01 07:00:00+00:00,318.4547,9.8,12.73,47.84626,-54.09684
2018-11-01 07:10:00+00:00,313.8663,9.8,12.73,47.84626,-54.09684
2018-11-01 07:20:00+00:00,308.208,9.8,12.81,47.84626,-54.09684
2018-11-01 07:30:00+00:00,300.9612,9.8,12.81,47.84626,-54.09684
2018-11-01 07:40:00+00:00,298.2497,9.8,12.81,47.84626,-54.09684
2018-11-01 07:50:00+00:00,296.463,9.8,12.81,47.84626,-54.09684
2018-11-01 08:00:00+00:00,289.8264,9.7,12.73,47.84626,-54.09684
2018-11-01 08:10:00+00:00,280.6114,9.7,12.73,47.84626,-54.09684
2018-11-01 08:20:00+00:00,275.6481,9.5,12.81,47.84626,-54.09684
2018-11-01 08:30:00+00:00,272.6747,9.4,12.81,47.84626,-54.09684
2018-11-01 08:40:00+00:00,267.1348,9.4,12.81,47.84626,-54.09684
2018-11-01 08:50:00+00:00,261.9197,9.5,12.81,47.84626,-54.09684
2018-11-01 09:00:00+00:00,261.1564,9.6,12.73,47.84626,-54.09684
2018-11-01 09:10:00+00:00,258.7731,9.69,12.73,47.84626,-54.09684
2018-11-01 09:20:00+00:00,253.5514,9.6,12.81,47.84626,-54.09684
2018-11-01 09:30:00+00:00,253.1414,9.6,12.81,47.84626,-54.09684
2018-11-01 09:40:00+00:00,252.2714,9.67,12.81,47.84626,-54.09684
2018-11-01 09:50:00+00:00,247.5614,9.6,12.81,47.84626,-54.09684
2018-11-01 10:00:00+00:00,240.5281,9.49,12.73,47.84626,-54.09684
2018-11-01 10:10:00+00:00,240.7231,9.52,12.73,47.84626,-54.09684
2018-11-01 10:20:00+00:00,243.1814,9.6,12.81,47.84626,-54.09684
2018-11-01 10:30:00+00:00,241.4548,9.6,12.81,47.84626,-54.09684
2018-11-01 10:40:00+00:00,240.9498,9.6,12.81,47.84626,-54.09684
2018-11-01 10:50:00+00:00,240.4698,9.6,12.81,47.84626,-54.09684
2018-11-01 11:00:00+00:00,240.0948,9.59,12.73,47.84626,-54.09684
2018-11-01 11:10:00+00:00,236.9764,9.59,12.73,47.84626,-54.09684
2018-11-01 11:20:00+00:00,236.9281,9.6,12.81,47.84626,-54.09684
2018-11-01 11:30:00+00:00,237.8815,9.6,12.81,47.84626,-54.09684
2018-11-01 11:40:00+00:00,240.7481,9.6,12.81,47.84626,-54.09684
2018-11-01 11:50:00+00:00,244.9614,9.5,12.89,47.84626,-54.09684
2018-11-01 12:00:00+00:00,249.8581,9.3,12.81,47.84626,-54.09684
2018-11-01 12:10:00+00:00,252.0447,9.3,12.73,47.84626,-54.09684
2018-11-01 12:20:00+00:00,254.063,9.3,12.81,47.84626,-54.09684
2018-11-01 12:30:00+00:00,256.2164,9.37,12.89,47.84626,-54.09684
2018-11-01 12:40:00+00:00,256.9081,9.5,12.97,47.84626,-54.09684
2018-11-01 12:50:00+00:00,256.4532,9.5,12.97,47.84626,-54.09684
2018-11-01 13:00:00+00:00,259.3947,9.5,12.97,47.84626,-54.09684
2018-11-01 13:10:00+00:00,262.3431,9.5,12.89,47.84626,-54.09684
2018-11-01 13:20:00+00:00,265.1047,9.5,12.97,47.84626,-54.09684
2018-11-01 13:30:00+00:00,264.3398,9.58,13.05,47.84626,-54.09684
2018-11-01 13:40:00+00:00,263.2347,9.6,13.13,47.84626,-54.09684
2018-11-01 13:50:00+00:00,267.2614,9.6,13.21,47.84626,-54.09684
2018-11-01 14:00:00+00:00,272.7847,9.6,13.21,47.84626,-54.09684
2018-11-01 14:10:00+00:00,273.2847,9.55,13.44,47.84626,-54.09684
2018-11-01 14:20:00+00:00,278.4114,9.51,13.44,47.84626,-54.09684
2018-11-01 14:30:00+00:00,289.4864,9.58,13.44,47.84626,-54.09684
2018-11-01 14:40:00+00:00,297.0113,9.5,13.44,47.84626,-54.09684
2018-11-01 14:50:00+00:00,301.3147,9.5,13.44,47.84626,-54.09684
2018-11-01 15:00:00+00:00,309.328,9.5,13.44,47.84626,-54.09684
2018-11-01 15:10:00+00:00,315.9229,9.59,13.44,47.84626,-54.09684
2018-11-01 15:20:00+00:00,316.4264,9.6,13.6,47.84626,-54.09684
2018-11-01 15:30:00+00:00,323.568,9.5,13.68,47.84626,-54.09684
2018-11-01 15:40:00+00:00,334.2196,9.5,13.76,47.84626,-54.09684
2018-11-01 15:50:00+00:00,339.0079,9.5,13.68,47.84626,-54.09684
2018-11-01 16:00:00+00:00,338.1129,9.5,13.6,47.84626,-54.09684
2018-11-01 16:10:00+00:00,341.8497,9.5,13.53,47.84626,-54.09684
2018-11-01 16:20:00+00:00,347.0713,9.5,13.68,47.84626,-54.09684
2018-11-01 16:30:00+00:00,346.9612,9.5,13.68,47.84626,-54.09684
2018-11-01 16:40:00+00:00,348.9564,9.5,13.68,47.84626,-54.09684
2018-11-01 16:50:00+00:00,354.4512,9.5,13.53,47.84626,-54.09684
2018-11-01 17:00:00+00:00,357.2328,9.5,13.44,47.84626,-54.09684
2018-11-01 17:10:00+00:00,357.4813,9.57,13.37,47.84626,-54.09684
2018-11-01 17:20:00+00:00,360.9028,9.62,13.44,47.84626,-54.09684
2018-11-01 17:30:00+00:00,362.2347,9.6,13.37,47.84626,-54.09684
2018-11-01 17:40:00+00:00,359.7562,9.58,13.37,47.84626,-54.09684
2018-11-01 17:50:00+00:00,356.4911,9.61,13.37,47.84626,-54.09684
2018-11-01 18:00:00+00:00,359.1713,9.69,13.29,47.84626,-54.09684
2018-11-01 18:10:00+00:00,359.9528,9.69,13.21,47.84626,-54.09684
2018-11-01 18:20:00+00:00,360.1363,9.69,13.29,47.84626,-54.09684
2018-11-01 18:30:00+00:00,361.8864,9.69,13.29,47.84626,-54.09684
2018-11-01 18:40:00+00:00,363.4196,9.7,13.29,47.84626,-54.09684
2018-11-01 18:50:00+00:00,362.033,9.7,13.29,47.84626,-54.09684
2018-11-01 19:00:00+00:00,357.9163,9.7,13.21,47.84626,-54.09684
2018-11-01 19:10:00+00:00,352.4463,9.7,13.13,47.84626,-54.09684
2018-11-01 19:20:00+00:00,342.3696,9.7,13.21,47.84626,-54.09684
2018-11-01 19:30:00+00:00,334.8614,9.7,13.21,47.84626,-54.09684
2018-11-01 19:40:00+00:00,332.3079,9.7,13.21,47.84626,-54.09684
2018-11-01 19:50:00+00:00,326.6013,9.7,13.21,47.84626,-54.09684
2018-11-01 20:00:00+00:00,318.3663,9.7,13.13,47.84626,-54.09684
2018-11-01 20:10:00+00:00,314.7647,9.7,13.05,47.84626,-54.09684
2018-11-01 20:20:00+00:00,312.1614,9.7,13.13,47.84626,-54.09684
2018-11-01 20:30:00+00:00,304.8879,9.7,13.13,47.84626,-54.09684
2018-11-01 20:40:00+00:00,307.3214,9.7,13.13,47.84626,-54.09684
2018-11-01 20:50:00+00:00,306.528,9.7,13.13,47.84626,-54.09684
2018-11-01 21:00:00+00:00,303.0197,9.7,13.05,47.84626,-54.09684
2018-11-01 21:10:00+00:00,291.3647,9.7,13.05,47.84626,-54.09684
2018-11-01 21:20:00+00:00,284.308,9.7,13.13,47.84626,-54.09684
2018-11-01 21:30:00+00:00,274.0831,9.7,13.05,47.84626,-54.09684
2018-11-01 21:40:00+00:00,263.1014,9.7,13.13,47.84626,-54.09684
2018-11-01 21:50:00+00:00,257.7164,9.7,13.13,47.84626,-54.09684
2018-11-01 22:00:00+00:00,260.5914,9.7,13.05,47.84626,-54.09684
2018-11-01 22:10:00+00:00,259.033,9.7,12.97,47.84626,-54.09684
2018-11-01 22:20:00+00:00,252.7847,9.7,13.05,47.84626,-54.09684
2018-11-01 22:30:00+00:00,248.3114,9.7,13.05,47.84626,-54.09684
2018-11-01 22:40:00+00:00,244.5365,9.7,13.05,47.84626,-54.09684
2018-11-01 22:50:00+00:00,237.5398,9.7,13.05,47.84626,-54.09684
2018-11-01 23:00:00+00:00,231.0964,9.7,13.05,47.84626,-54.09684
2018-11-01 23:10:00+00:00,230.8681,9.7,12.97,47.84626,-54.09684
2018-11-01 23:20:00+00:00,228.7615,9.7,13.05,47.84626,-54.09684
2018-11-01 23:30:00+00:00,226.0198,9.7,13.05,47.84626,-54.09684
2018-11-01 23:40:00+00:00,223.8914,9.7,13.05,47.84626,-54.09684
2018-11-01 23:50:00+00:00,225.7431,9.7,13.05,47.84626,-54.09684
